User: anonymous   Login
Location: Mount Cross
(36.6390°N, 79.4878°W)
Time: 19:10:40
(UTC+00:00)
Language:

A-11 Canister half - Orbit

View from above orbital plane
View from above orbital plane
View from above satellite
View from above satellite

Ground track
Ground track

The orbit data is extracted from the following two-line orbital elements,

1 00053U 60009E   24106.50522400  .00000064  00000-0  14510-2 0  9997
2 00053  47.2765 267.3936 0098278 252.1603 106.8445 12.17328215838863
Epoch (UTC): 15 April 2024 12:07:31
Eccentricity: 0.0098278
inclination: 47.2765°
perigee height: 1526 km
apogee height: 1682 km
right ascension of ascending node: 267.3936°
argument of perigee: 252.1603°
revolutions per day: 12.17328215
mean anomaly at epoch: 106.8445°
orbit number at epoch: 83886

The dashed part of the orbit path shows where the satellite is in the earth's shadow,  

DLR